Regional Weather Roundup
Issued by NWS

Home | Current Version | Previous Version | Graphics & Text | Print | Product List | Glossary On
Versions: 1 2 3 4 5 6 7 8 9 10 11 12 13 14 15 16 17 18 19 20 21 22 23 24 25 26 27 28 29 30 31 32 33 34 35 36 37 38 39 40 41 42 43 44 45 46 47 48 49 50
000
ASUS43 KMKX 192100
RWRWI

WISCONSIN REGIONAL WEATHER ROUNDUP
NATIONAL WEATHER SERVICE MILWAUKEE/SULLIVAN WI
400 PM CDT THU OCT 19 2017

NOTE: "FAIR" INDICATES FEW OR NO CLOUDS BELOW 12,000 FEET WITH NO
SIGNIFICANT WEATHER AND/OR OBSTRUCTIONS TO VISIBILITY.

WIZ001-002-006>008-014>016-023>028-192200-
NORTHWEST WISCONSIN

CITY           SKY/WX    TMP DP  RH WIND       PRES   REMARKS
SUPERIOR ARPT  SUNNY     70  33  26 SW15      29.92F
ASHLAND        SUNNY     70  31  23 SW13G22   29.96F
HAYWARD        SUNNY     68  32  26 S13       29.99F
SIREN          SUNNY     71  31  23 S13       29.97F
CUMBERLAND     MOSUNNY   68  32  26 S13       30.00F
RICE LAKE      MOSUNNY   70  31  23 S12       30.01F
CHETEK         MOSUNNY   69  35  28 S12G17    30.02S
LADYSMITH      SUNNY     68  32  27 S9        30.04F
EAU CLAIRE     NOT AVBL
MENOMONIE      MOSUNNY   71  35  27 S10G16    30.02S
NEW RICHMOND   SUNNY     71  32  23 S13G21    29.99F
OSCEOLA        SUNNY     72  34  25 S15       30.00F
$$

WIZ003>005-009-010-017-018-192200-
NORTH CENTRAL WISCONSIN

CITY           SKY/WX    TMP DP  RH WIND       PRES   REMARKS
MANITOWISH WTR SUNNY     65  30  27 SW9       30.02F
ARBOR VITAE    SUNNY     65  30  26 SW8       30.03S
WOODRUFF       SUNNY     65  30  26 SW8       30.03S
RHINELANDER    SUNNY     66  28  24 SW8       30.05F
EAGLE RIVER    SUNNY     64  24  22 W10       30.04S
LAND O LAKES   SUNNY     65  25  22 SW8       30.04F
PHILLIPS       SUNNY     65  32  28 SW9       30.02F
TOMAHAWK       SUNNY     66  29  24 CALM      30.05S
MEDFORD        SUNNY     65  33  29 S9        30.06F
MERRILL        SUNNY     68  32  26 SW10      30.06S
$$

WIZ029-030-035-036-043>047-192200-
CENTRAL WISCONSIN

CITY           SKY/WX    TMP DP  RH WIND       PRES   REMARKS
WAUSAU         SUNNY     67  30  25 SW7       30.05S
MOSINEE        MOSUNNY   66  34  30 SW8       30.08S
MARSHFIELD     SUNNY     69  30  23 S9        30.05F
STEVENS POINT  SUNNY     66  32  27 S8        30.09S
WAUPACA        SUNNY     72  30  20 SW7       30.09S
WAUTOMA        SUNNY     71  33  24 MISG      30.09S
WISC RAPIDS    SUNNY     70  35  27 S8        30.08F
CAMP DOUGLAS   NOT AVBL
$$

WIZ011>013-019>022-031-037>040-048>050-192200-
NORTHEAST WISCONSIN

CITY           SKY/WX    TMP DP  RH WIND       PRES   REMARKS
ANTIGO         SUNNY     64  35  33 W8        30.07S
SHAWANO        SUNNY     70  29  21 W7        30.07S
OCONTO         MOSUNNY   67  31  25 W10G16    30.06S
STURGEON BAY   SUNNY     66  32  28 W12       30.08S
GREEN BAY      SUNNY     68  32  26 SW9       30.08S
MANITOWOC      SUNNY     67  31  26 W6        30.11R
APPLETON       MOSUNNY   66  37  34 SW8       30.08S
CLINTONVILLE   SUNNY     70  27  19 SW3       30.07F
OSHKOSH        SUNNY     68  33  27 SW7       30.09F
$$

WIZ032>034-041-042-053>061-192200-
SOUTHWEST WISCONSIN

CITY           SKY/WX    TMP DP  RH WIND       PRES   REMARKS
LA CROSSE      SUNNY     71  32  23 S16       30.06F
SPARTA         SUNNY     71  35  27 SW7       30.07F
VIROQUA        SUNNY     69  36  29 S9        30.09F
BOSCOBEL       CLOUDY    73  32  22 VRB7      30.10F
PRAIRIE DU CHI CLOUDY    71  30  22 SE6       30.09F
PLATTEVILLE    SUNNY     70  36  29 S7        30.13S
$$

WIZ056-057-062-063-064-067-068-192200-
SOUTH CENTRAL WISCONSIN

CITY           SKY/WX    TMP DP  RH WIND       PRES   REMARKS
REEDSBURG      SUNNY     69  38  32 S9        30.10S
BARABOO/DELLS  SUNNY     68  34  28 S10       30.10F
LONE ROCK      NOT AVBL
MINERAL POINT  CLOUDY    72  32  23 SE6       30.12F
MADISON        PTSUNNY   67  33  28 S9        30.12S
MIDDLETON      SUNNY     70  31  23 SW8       30.13S
WATERTOWN      MOSUNNY   68  33  26 SW5       30.12F
MONROE         SUNNY     70  32  24 SE6       30.13S
JANESVILLE     PTSUNNY   72  28  20 VRB6      30.13F
$$

WIZ051-052-058>065-066-070>072-192200-
SOUTHEAST WISCONSIN

CITY           SKY/WX    TMP DP  RH WIND       PRES   REMARKS
MILWAUKEE      MOSUNNY   64  32  30 SE13      30.15R
WAUKESHA       SUNNY     66  30  26 SW6       30.15S
MILWAUKEE/TIMM SUNNY     68  21  17 SW8       30.14S
RACINE         MOSUNNY   62  28  27 S12       30.17R
BURLINGTON     SUNNY     69  31  24 S3        30.14S
KENOSHA        MOSUNNY   64  28  25 SE12      30.16S
FOND DU LAC    SUNNY     70  29  21 VRB6      30.10F
SHEBOYGAN      SUNNY     68  35  29 SW5       30.11S
WEST BEND      SUNNY     68  28  22 W7        30.12S
JUNEAU         SUNNY     68  31  25 SW3       30.13F
$$

LSZ147-162-192200-
LAKE SUPERIOR

STATION/POSITION TIME  TEMP    WIND        PRES    WAVE
                       AIR SEA DIR/SP/G            HT/PER
                 (UTC) (F)     (DEG/KT/KT) (MB)    (FT/S)
W MID LAKE BUOY  1950   55 52              1014.8F   4/ 5
DEVILS ISLAND    2000   58     230/  7/  8 1014.8F
PORT WING        1940           30/  4/  5 1014.6
SAXON HARBOR     2040   71     200/ 11/ 14 1014.2F
$$

LMZ867-665-643>646-192200-
LAKE MICHIGAN

STATION/POSITION TIME  TEMP    WIND        PRES    WAVE
                       AIR SEA DIR/SP/G            HT/PER
                 (UTC) (F)     (DEG/KT/KT) (MB)    (FT/S)
S GREEN BAY BUOY 2000   63 58  240/ 10/ 14 1018.0
N MID LAKE BUOY  1950   58 58  220/ 16/ 17 1017.9S   4/ 6
NORTHPORT PIER   2040   66     220/  5/ 11 1017.3S
KEWAUNEE LAKESHO 2030   66     260/  8/ 11 1017.9S
SHEBOYGAN LAKESH 2000   67     250/  3/  5 1019.2F
PORT WASHINGTON  2040   60     190/  8/ 11 1021.0S
ATWATER BUOY     1909   57 54  150/ 12/ 14 1020.6F
MILWAUKEE LAKESH 2050   57     150/ 15/ 16   N/A
S MID LAKE BUOY  1950   59 61  260/  6/  6 1021.8F   1/ 4
KENOSHA   LAKESH 2000   59     180/ 10/ 11 1021.0
$$

TC  - TEMPERATURE IN CELSIUS
VSB - VISIBILITY IN STATUTE MILES
WCI - WIND CHILL INDEX
HX  - HEAT INDEX





USA.gov is the U.S. government's official web portal to all federal, state and local government web resources and services.